"2022-05-22 00:01:00",2947365,0.6633333,179.7303,4.696008,0.02211083,0.7,0,0.2706667,163.2037,4.913273,0.02048306,0.31,0,-999,0,8.7,96.1,8.71,8.84,0.2,0,0,8.48,13.24,0.2,102.0241,3.291,3.292,3.29,100,0,0,0,40.93,170,170
"2022-05-22 00:02:00",2947366,0.6466666,171.8006,3.102501,0.01577622,0.67,0,0.1813333,159.9452,8.205423,0.06173779,0.3,0,-999,0,8.64,95.9,8.66,8.8,0.2,0,0,8.48,13.25,0.2,102.0184,3.292,3.292,3.29,100,0,0,0,40.93,170,170
"2022-05-22 00:03:00",2947367,0.5773334,167.7334,1.651794,0.009977751,0.6,0,0.112,146.8804,18.2166,0.03798245,0.19,0,-999,0,8.6,95.9,8.62,8.77,0.2,0,0,8.48,13.24,0.2,102.0195,3.291,3.293,3.29,100,0,0,0,40.93,170,170
"2022-05-22 00:04:00",2947368,0.5546667,172.5329,2.305309,0.04716873,0.61,0,0.2046667,176.3202,6.035101,0.03593822,0.27,0,-999,0,8.58,95.9,8.59,8.72,0.2,0,0,8.48,13.25,0.2,102.0173,3.292,3.294,3.291,100,0,0,0,40.93,170,170
"2022-05-22 00:05:00",2947369,0.614,181.0023,4.257527,0.0230362,0.65,0,0.356,182.0725,6.19031,0.04730046,0.44,0,-999,0,8.5,95.8,8.56,8.69,0.2,0,0,8.48,13.25,0.2,102.0201,3.291,3.293,3.291,100,0,0,0,40.93,170,170
"2022-05-22 00:06:00",2947370,0.7133332,178.1334,1.667894,0.02624669,0.75,0,0.4633333,176.129,4.615431,0.00869227,0.48,0,-999,0,8.5,95.4,8.55,8.68,0.2,0,0,8.48,13.25,0.2,102.0155,3.292,3.293,3.29,100,0,0,0,40.93,170,170
"2022-05-22 00:07:00",2947371,0.7713333,176.9332,2.908808,0.0324277,0.82,0,0.46,167.0678,5.420803,0.04676181,0.55,0,-999,0,8.5,95.1,8.58,8.71,0.2,0,0,8.48,13.24,0.2,102.0139,3.291,3.292,3.29,100,0,0,0,40.93,170,170
"2022-05-22 00:08:00",2947372,0.7860001,169.9334,1.878315,0.03322649,0.83,0,0.526,151.2675,3.086216,0.01496663,0.56,0,-999,0,8.53,95.1,8.59,8.72,0.2,0,0,8.46,13.23,0.2,102.0115,3.29,3.292,3.288,100,0,0,0,40.93,170,170
"2022-05-22 00:09:00",2947373,0.676,158.7295,3.566057,0.03282276,0.76,0,0.528,134.0099,8.050504,0.01557777,0.55,0,-999,0,8.59,95.5,8.62,8.76,0.2,0,0,8.46,13.24,0.2,102.0066,3.29,3.291,3.289,100,0,0,0,40.93,170,170
"2022-05-22 00:10:00",2947374,0.576,159.1334,1.203809,0.06926278,0.69,0,0.4653333,103.9019,8.804555,0.01668,0.5,0,-999,0,8.6,96,8.69,8.78,0.2,0,0,8.46,13.24,0.2,102.0072,3.292,3.292,3.29,100,0,0,0,40.93,170,170
"2022-05-22 00:11:00",2947375,0.4726667,144.7352,5.088155,0.02694851,0.52,0,0.474,84.24144,11.42438,0.03702252,0.54,0,-999,0,8.6,95.9,8.68,8.8,0.2,0,0,8.44,13.25,0.2,102.0024,3.29,3.293,3.29,100,0,0,0,40.93,170,170
"2022-05-22 00:12:00",2947376,0.4006667,132.6877,7.974189,0.02048305,0.43,0,0.6479999,58.46657,3.518756,0.05049092,0.72,0,-999,0,8.6,95.4,8.65,8.79,0.2,0,0,8.44,13.24,0.2,102.0008,3.292,3.292,3.29,100,0,0,0,40.93,170,170
"2022-05-22 00:13:00",2947377,0.4439999,106.5405,8.779051,0.03791218,0.54,0,0.7013333,50.60046,4.159555,0.03030217,0.76,0,-999,0,8.68,95.3,8.69,8.81,0.2,0,0,8.44,13.24,0.2,102.0008,3.291,3.292,3.29,100,0,0,0,40.93,170,170
"2022-05-22 00:14:00",2947378,0.4,92.5721,11.88704,0.04774934,0.46,0,0.6893333,42.86695,2.801118,0.03255082,0.74,0,-999,0,8.69,95,8.69,8.82,0.2,0,0,8.44,13.23,0.2,101.9967,3.29,3.291,3.29,100,0,0,0,40.93,170,170
"2022-05-22 00:15:00",2947379,0.4206666,74.05051,8.235137,0.05434049,0.51,0,0.6026667,40.60009,2.416418,0.04767483,0.69,0,-999,0,8.63,95.2,8.64,8.79,0.2,0,0,8.43,13.25,0.2,101.9963,3.29,3.291,3.29,100,0,0,0,40.93,170,170
"2022-05-22 00:16:00",2947380,0.324,72.93458,5.789473,0.03946306,0.41,0,0.5986667,37.33337,1.659834,0.04951318,0.68,0,-999,0,8.53,95.4,8.55,8.73,0.2,0,0,8.41,13.25,0.2,101.9985,3.291,3.291,3.288,100,0,0,0,40.93,170,170
"2022-05-22 00:17:00",2947381,0.286,70.46426,7.896745,0.03050683,0.34,0,0.5113333,40.46067,4.949061,0.061413,0.62,0,-999,0,8.43,95.8,8.46,8.65,0.2,0,0,8.41,13.24,0.2,102.0037,3.29,3.291,3.29,100,0,0,0,40.93,170,170
"2022-05-22 00:18:00",2947382,0.2913333,66.79635,4.321762,0.02061284,0.33,0,0.384,48.73168,4.417657,0.04409081,0.48,0,-999,0,8.35,96.1,8.36,8.55,0.2,0,0,8.4,13.25,0.2,102.0031,3.291,3.292,3.289,100,0,0,0,40.93,170,170
"2022-05-22 00:19:00",2947383,0.2613333,51.93252,6.747024,0.01203698,0.28,0,0.3293334,22.60905,9.301976,0.03415,0.4,0,-999,0,8.27,96.5,8.3,8.48,0.2,0,0,8.39,13.25,0.2,101.9967,3.29,3.293,3.29,100,0,0,0,40.93,170,170
"2022-05-22 00:20:00",2947384,0.3113333,18.90503,7.703617,0.05175155,0.43,0,0.4526667,13.06763,6.835507,0.04795367,0.53,0,-999,0,8.2,96.6,8.25,8.43,0.2,0,0,8.39,13.24,0.2,101.999,3.29,3.292,3.289,100,0,0,0,40.93,170,170
"2022-05-22 00:21:00",2947385,0.5206667,3.065286,6.25296,0.04753478,0.58,0,0.5873334,338.4485,7.324597,0.02862788,0.64,0,-999,0,8.2,96.8,8.22,8.38,0.2,0,0,8.37,13.24,0.2,102.003,3.288,3.292,3.288,100,0,0,0,40.93,170,170
"2022-05-22 00:22:00",2947386,0.686,351.3327,3.155082,0.09548471,0.83,0,0.6519999,344.3992,3.536054,0.04182502,0.72,0,-999,0,8.14,96.6,8.18,8.34,0.2,0,0,8.37,13.25,0.2,102.0041,3.29,3.291,3.288,100,0,0,0,40.93,170,170
"2022-05-22 00:23:00",2947387,0.8733333,357.4,1.705044,0.02118699,0.9,0,0.7846667,358.9404,7.350951,0.05783501,0.9,0,-999,0,8.15,95.8,8.18,8.34,0.2,0,0,8.35,13.24,0.2,102.0022,3.29,3.291,3.288,100,0,0,0,40.93,170,170
"2022-05-22 00:24:00",2947388,0.902,354.3333,0.698589,0.02663331,0.95,0,0.9680001,10.93341,1.569191,0.04399998,1.05,0,-999,0,8.11,96,8.19,8.34,0.2,0,0,8.35,13.24,0.2,102.0024,3.291,3.291,3.29,100,0,0,0,40.93,170,170
"2022-05-22 00:25:00",2947389,0.9693334,354.2,1.221804,0.02976948,1.01,0,0.8880001,8.138946,4.934489,0.0508855,0.98,0,-999,0,8.32,95.3,8.38,8.47,0.2,0,0,8.34,13.23,0.2,102.0028,3.291,3.292,3.29,100,0,0,0,40.93,170,170
"2022-05-22 00:26:00",2947390,1.07,351.2669,3.233995,0.05573747,1.17,0,0.8913333,3.465547,4.896067,0.1117656,1.13,0,-999,0,8.37,95.8,8.41,8.51,0.2,0,0,8.33,13.24,0.2,101.9986,3.29,3.291,3.288,100,0,0,0,40.93,170,170
"2022-05-22 00:27:00",2947391,1.250666,346.1998,1.469461,0.02815826,1.29,0,1.119333,355.9345,4.891161,0.1073602,1.33,0,-999,0,8.3,96.5,8.38,8.5,0.2,0,0,8.32,13.24,0.2,102.0027,3.29,3.291,3.29,100,0,0,0,40.93,170,170
"2022-05-22 00:28:00",2947392,1.362667,345.9333,0.928337,0.02542089,1.41,0,1.060667,355.9323,7.762023,0.1661512,1.35,0,-999,0,8.3,97,8.37,8.5,0.2,0,0,8.3,13.23,0.2,102.0014,3.289,3.29,3.286,100,0,0,0,40.93,170,170
"2022-05-22 00:29:00",2947393,1.441333,351,1.211185,0.01961861,1.48,0,1.041333,355.4002,4.127654,0.1255317,1.23,0,-999,0,8.38,97.2,8.43,8.54,0.2,0,0,8.3,13.24,0.2,102.0067,3.29,3.292,3.288,100,0,0,0,40.93,170,170
"2022-05-22 00:30:00",2947394,1.533333,352.0666,0.9286531,0.01349896,1.56,0,1.032667,352.6624,5.0921,0.1255636,1.26,0,-999,0,8.42,97.7,8.49,8.6,0.2,0,0,8.3,13.23,0.2,102.0061,3.288,3.292,3.288,100,0,0,0,40.93,170,170
"2022-05-22 00:31:00",2947395,1.559333,357.5337,2.0933,0.01481744,1.59,0,0.9219999,352.0047,5.276414,0.09246261,1.08,0,-999,0,8.41,98,8.48,8.63,0.2,0,0,8.3,13.24,0.2,102.004,3.29,3.291,3.288,100,0,0,0,40.93,170,170
"2022-05-22 00:32:00",2947396,1.518667,359.8667,0.9568848,0.02246971,1.55,0,0.8773333,357.7995,4.815923,0.1057334,1.06,0,-999,0,8.4,98,8.47,8.57,0.2,0,0,8.3,13.23,0.2,102.0027,3.29,3.29,3.288,100,0,0,0,40.93,170,170
"2022-05-22 00:33:00",2947397,1.515333,1.666651,1.011277,0.02654973,1.57,0,0.7353334,359.3988,7.131646,0.1039145,0.87,0,-999,0,8.4,97.6,8.44,8.57,0.2,0,0,8.28,13.24,0.2,102.002,3.29,3.29,3.288,100,0,0,0,40.93,170,170
"2022-05-22 00:34:00",2947398,1.54,0.4,0.7999279,0.03245511,1.59,0,0.6093333,358.9576,8.56988,0.1054177,0.86,0,-999,0,8.4,97.2,8.42,8.56,0.2,0,0,8.28,13.23,0.2,102.012,3.29,3.29,3.286,100,0,0,0,40.93,170,170
"2022-05-22 00:35:00",2947399,1.473333,358.4,0.4905921,0.0353396,1.54,0,0.6393334,357.0617,7.491765,0.1328391,0.88,0,-999,0,8.4,97.2,8.42,8.56,0.2,0,0,8.28,13.25,0.2,102.0058,3.29,3.29,3.288,100,0,0,0,40.93,170,170
"2022-05-22 00:36:00",2947400,1.411333,3.799438,3.654757,0.0215613,1.46,0,0.684,357.27,6.003949,0.09127247,0.9,0,-999,0,8.4,97,8.43,8.56,0.2,0,0,8.28,13.24,0.2,102.0003,3.288,3.291,3.288,100,0,0,0,40.93,170,170
"2022-05-22 00:37:00",2947401,1.279333,9.799997,0.5406852,0.05118157,1.37,0,0.5986666,8.198002,5.242084,0.1041068,0.83,0,-999,0,8.4,96.9,8.43,8.56,0.2,0,0,8.26,13.25,0.2,101.9966,3.29,3.29,3.288,100,0,0,0,40.93,170,170
"2022-05-22 00:38:00",2947402,1.210667,9.866696,0.884065,0.02048306,1.24,0,0.616,12.81351,7.407791,0.08700957,0.84,0,-999,0,8.4,96.7,8.43,8.53,0.2,0,0,8.26,13.24,0.2,101.9965,3.29,3.29,3.288,100,0,0,0,40.93,170,170
"2022-05-22 00:39:00",2947403,1.200667,5.133247,2.848716,0.02048307,1.24,0,0.6246668,10.32554,5.789201,0.02729266,0.67,0,-999,0,8.4,96.6,8.42,8.53,0.2,0,0,8.26,13.24,0.2,101.9937,3.288,3.29,3.288,100,0,0,0,40.93,170,170
"2022-05-22 00:40:00",2947404,1.208,1.200139,1.904508,0.01375985,1.23,0,0.6626667,2.131721,2.824324,0.02885983,0.72,0,-999,0,8.39,96.8,8.42,8.53,0.2,0,0,8.26,13.24,0.2,101.993,3.29,3.29,3.288,100,0,0,0,40.93,170,170
"2022-05-22 00:41:00",2947405,1.166667,353.2666,2.264674,0.01074968,1.19,0,0.6373333,355.0699,4.984909,0.03785352,0.69,0,-999,0,8.33,97.1,8.41,8.53,0.2,0,0,8.25,13.25,0.2,101.9905,3.29,3.291,3.29,100,0,0,0,40.93,170,170
"2022-05-22 00:42:00",2947406,1.218,352,1.26486,0.02315166,1.27,0,0.5693333,338.4008,6.835492,0.04508757,0.66,0,-999,0,8.3,97.4,8.39,8.51,0.2,0,0,8.23,13.24,0.2,101.9902,3.29,3.291,3.288,100,0,0,0,40.93,170,170
"2022-05-22 00:43:00",2947407,1.273333,352.8666,1.203647,0.01659985,1.3,0,0.5273333,331.0691,4.387998,0.05359934,0.62,0,-999,0,8.3,97.1,8.39,8.52,0.2,0,0,8.23,13.23,0.2,101.999,3.29,3.29,3.287,100,0,0,0,40.93,170,170
"2022-05-22 00:44:00",2947408,1.256667,349.6668,1.776192,0.01849923,1.29,0,0.5193333,334.0661,4.121559,0.06697927,0.62,0,-999,0,8.3,96.2,8.39,8.51,0.2,0,0,8.21,13.25,0.2,101.9931,3.288,3.291,3.288,100,0,0,0,40.93,170,170
"2022-05-22 00:45:00",2947409,1.289333,342.7333,2.541994,0.0259401,1.34,0,0.6033334,324.9342,5.358422,0.03025814,0.65,0,-999,0,8.3,95.8,8.41,8.51,0.2,0,0,8.21,13.23,0.2,101.992,3.288,3.29,3.286,100,0,0,0,40.93,170,170
"2022-05-22 00:46:00",2947410,1.292667,342.5999,2.576714,0.03375731,1.34,0,0.5713333,309.9322,3.731754,0.03612325,0.62,0,-999,0,8.3,95.8,8.42,8.52,0.2,0,0,8.19,13.24,0.2,101.9892,3.29,3.29,3.288,100,0,0,0,40.93,170,170
"2022-05-22 00:47:00",2947411,1.18,348.2,1.166066,0.05072804,1.25,0,0.3746667,311.0264,8.056278,0.08484235,0.52,0,-999,0,8.31,96.1,8.39,8.51,0.2,0,0,8.19,13.24,0.2,101.9879,3.29,3.29,3.288,100,0,0,0,40.93,170,170
"2022-05-22 00:48:00",2947412,1.092667,354.0662,2.862548,0.01526072,1.11,0,0.272,307.4739,19.90672,0.05294022,0.37,0,-999,0,8.28,96.6,8.31,8.45,0.2,0,0,8.17,13.23,0.2,101.9862,3.288,3.29,3.286,100,0,0,0,40.93,170,170
"2022-05-22 00:49:00",2947413,0.9526666,353.0001,2.128971,0.05801915,1.04,0,0.09933333,253.4628,7.094335,0.0390669,0.19,0,-999,0,8.2,97.3,8.24,8.4,0.2,0,0,8.17,13.24,0.2,101.9822,3.29,3.29,3.288,100,0,0,0,40.93,170,170
"2022-05-22 00:50:00",2947414,0.7560001,344.0697,4.342103,0.08920386,0.89,0,0.3586667,270.1976,5.228923,0.05524089,0.41,0,-999,0,8.18,98.1,8.18,8.35,0.2,0,0,8.16,13.23,0.2,101.9873,3.29,3.291,3.288,100,0,0,0,40.93,170,170
"2022-05-22 00:51:00",2947415,0.67,335.5337,2.418282,0.03915781,0.73,0,0.3853333,266.198,4.307235,0.02704728,0.42,0,-999,0,8.05,97.6,8.01,8.21,0.2,0,0,8.15,13.24,0.2,101.9949,3.288,3.291,3.288,100,0,0,0,40.93,170,170
"2022-05-22 00:52:00",2947416,0.5413333,330.8666,3.323748,0.05702241,0.64,0,0.4713334,251.1327,3.861269,0.02872087,0.53,0,-999,0,7.947,97.1,7.846,8.07,0.2,0,0,8.13,13.24,0.2,101.9972,3.289,3.29,3.288,100,0,0,0,40.93,170,170
"2022-05-22 00:53:00",2947417,0.3059999,329.1988,4.503377,0.07382863,0.42,0,0.45,235.7297,3.836328,0.0244949,0.5,0,-999,0,7.707,95.8,7.646,7.896,0.2,0,0,8.13,13.23,0.2,101.9976,3.288,3.29,3.288,100,0,0,0,40.93,170,170
"2022-05-22 00:54:00",2947418,0.1253333,7.916067,17.74473,0.04470148,0.19,0,0.5913333,223.8668,6.468136,0.09039666,0.69,0,-999,0,7.54,94.8,7.456,7.735,0.2,0,0,8.1,13.24,0.2,101.9846,3.29,3.29,3.288,100,0,0,0,40.93,170,170
"2022-05-22 00:55:00",2947419,0.064,100.4336,18.55607,0.01540563,0.09,0,0.6700001,214.4,1.083047,0.02875183,0.72,0,-999,0,7.407,94.5,7.346,7.596,0.2,0,0,8.08,13.24,0.2,101.985,3.29,3.29,3.286,100,0,0,0,40.93,170,170
"2022-05-22 00:56:00",2947420,0.09533335,95.25129,10.26028,0.010873,0.11,0,0.646,220.9339,3.749699,0.07752848,0.73,0,-999,0,7.313,95.1,7.286,7.5,0.2,0,0,8.08,13.24,0.2,101.9831,3.29,3.291,3.288,100,0,0,0,40.93,170,170
"2022-05-22 00:57:00",2947421,0.128,106.6625,6.38295,0.0110755,0.14,0,0.5633333,226.7321,4.170331,0.02599145,0.61,0,-999,0,7.273,95.6,7.264,7.449,0.2,0,0,8.06,13.24,0.2,101.9834,3.291,3.291,3.288,100,0,0,0,40.93,170,170
"2022-05-22 00:58:00",2947422,0.1533334,151.0545,24.37148,0.03155243,0.19,0,0.5026667,225.9326,5.091848,0.04493946,0.59,0,-999,0,7.2,95.7,7.222,7.379,0.2,0,0,8.04,13.24,0.2,101.985,3.29,3.29,3.287,100,0,0,0,40.93,170,170
"2022-05-22 00:59:00",2947423,0.25,188.0676,3.375513,0.02476556,0.29,0,0.6546666,232.2667,0.442351,0.0338362,0.7,0,-999,0,7.2,95.4,7.19,7.34,0.2,0,0,8.02,13.23,0.2,101.9882,3.288,3.29,3.286,100,0,0,0,40.93,170,170
"2022-05-22 01:00:00",2947424,0.3366666,192.8658,6.270444,0.02599145,0.38,0,0.6993334,231.3333,0.699149,0.01339983,0.72,0,-999,0,7.2,95,7.242,7.346,0.2,0,0,8,13.25,0.2,101.9846,3.289,3.289,3.287,100,0,0,0,40.93,170,170
"2022-05-22 01:01:00",2947425,0.45,201.5992,2.497476,0.03829708,0.51,0,0.6939999,229.8667,1.024162,0.007999992,0.71,0,-999,0,7.2,95.3,7.256,7.352,0.2,0,0,7.992,13.24,0.2,101.9879,3.29,3.29,3.286,100,0,0,0,40.93,170,170
"2022-05-22 01:02:00",2947426,0.506,214.4004,1.890059,0.01019803,0.52,0,0.738,232.8,0.9091658,0.0216641,0.77,0,-999,0,7.287,95.5,7.374,7.447,0.2,0,0,7.966,13.24,0.2,101.9803,3.288,3.29,3.286,100,0,0,0,40.93,170,170
"2022-05-22 01:03:00",2947427,0.4526667,202.9278,7.566833,0.04682829,0.53,0,0.7446666,227.3341,4.825653,0.03649048,0.78,0,-999,0,7.38,95.8,7.468,7.54,0.2,0,0,7.95,13.24,0.2,101.9782,3.288,3.29,3.286,100,0,0,0,40.93,170,170
"2022-05-22 01:04:00",2947428,0.376,218.1472,9.247863,0.02550817,0.4,0,0.6613333,231.8648,4.094787,0.02305549,0.71,0,-999,0,7.4,96.3,7.414,7.527,0.2,0,0,7.932,13.25,0.2,101.974,3.29,3.29,3.288,100,0,0,0,40.93,170,170
"2022-05-22 01:05:00",2947429,0.192,256.7086,25.14032,0.04277071,0.29,0,0.5613334,258.8437,12.68004,0.1204362,0.71,0,-999,0,7.307,96.9,7.358,7.504,0.2,0,0,7.906,13.24,0.2,101.9729,3.29,3.29,3.286,100,0,0,0,40.93,170,170
"2022-05-22 01:06:00",2947430,0.556,306.4063,8.150232,0.2973618,1.24,0,0.6746667,322.6909,13.04113,0.2564077,1.27,0,-999,0,7.28,97.7,7.272,7.435,0.2,0,0,7.894,13.23,0.2,101.9743,3.288,3.288,3.284,100,0,0,0,40.93,170,170
"2022-05-22 01:07:00",2947431,1.796667,331.0651,3.233965,0.2222511,2.06,0,1.516,341.5335,4.629955,0.1640244,1.84,0,-999,0,7.16,96.8,7.146,7.316,0.2,0,0,7.874,13.24,0.2,101.9825,3.289,3.29,3.286,100,0,0,0,40.93,170,170
"2022-05-22 01:08:00",2947432,1.954667,327.9934,4.239099,0.09611566,2.14,0,1.313333,336.6027,4.826062,0.1500074,1.57,0,-999,0,7.013,96,7.045,7.214,0.2,0,0,7.851,13.24,0.2,101.9834,3.288,3.29,3.286,100,0,0,0,40.93,170,170
"2022-05-22 01:09:00",2947433,1.762,329.9974,5.214973,0.07993329,1.91,0,1.119333,322.2592,5.832262,0.1315784,1.34,0,-999,0,7.067,95.1,7.116,7.233,0.2,0,0,7.827,13.23,0.2,101.985,3.287,3.29,3.286,100,0,0,0,40.93,170,170
"2022-05-22 01:10:00",2947434,1.372,325.4001,1.818246,0.1457486,1.58,0,0.7793333,305.332,3.787718,0.1237452,0.91,0,-999,0,7.1,95.2,7.191,7.297,0.2,0,0,7.812,13.24,0.2,101.9845,3.288,3.288,3.286,100,0,0,0,40.93,170,170
"2022-05-22 01:11:00",2947435,0.9273334,318.2666,3.510326,0.1180659,1.13,0,0.6020001,286.8043,12.29554,0.09410633,0.74,0,-999,0,7.1,96.7,7.187,7.294,0.2,0,0,7.794,13.23,0.2,101.979,3.288,3.288,3.286,100,0,0,0,40.93,170,170
"2022-05-22 01:12:00",2947436,0.644,305.331,6.12687,0.0344093,0.69,0,0.6406667,256.1357,5.964687,0.08003887,0.74,0,-999,0,7.1,98.5,7.203,7.31,0.2,0,0,7.774,13.24,0.2,101.9808,3.288,3.288,3.285,100,0,0,0,40.93,170,170
"2022-05-22 01:13:00",2947437,0.6619999,290.399,3.24081,0.02587148,0.71,0,0.8060001,248.1345,3.738848,0.06731022,0.95,0,-999,0,7.1,98.2,7.18,7.292,0.2,0,0,7.759,13.25,0.2,101.9794,3.288,3.288,3.286,100,0,0,0,40.93,170,170
"2022-05-22 01:14:00",2947438,0.7646667,285.1999,1.221724,0.05389702,0.84,0,1.010667,249.1329,1.995247,0.05026153,1.09,0,-999,0,7.107,97.2,7.228,7.333,0.2,0,0,7.733,13.23,0.2,101.9781,3.288,3.29,3.286,100,0,0,0,40.93,170,170
"2022-05-22 01:15:00",2947439,0.8553334,285.1332,1.995542,0.03095516,0.9,0,1.004,260.8012,2.760699,0.03684198,1.06,0,-999,0,7.267,96.9,7.447,7.507,0.2,0,0,7.729,13.25,0.2,101.9798,3.289,3.29,3.288,100,0,0,0,40.93,170,170
"2022-05-22 01:16:00",2947440,1.015333,291.0668,2.434793,0.08444855,1.15,0,0.9639999,267.1995,2.87965,0.028,1.01,0,-999,0,7.347,97.4,7.569,7.602,0.2,0,0,7.703,13.24,0.2,101.9846,3.288,3.29,3.287,100,0,0,0,40.93,170,170
"2022-05-22 01:17:00",2947441,1.342,297.0001,2.250749,0.07687218,1.46,0,0.9673334,276.5339,4.484242,0.07433857,1.1,0,-999,0,7.4,97.8,7.524,7.605,0.2,0,0,7.684,13.22,0.2,101.9831,3.284,3.29,3.284,100,0,0,0,40.93,169.9,170
"2022-05-22 01:18:00",2947442,1.447333,294.7332,5.065614,0.02462159,1.49,0,0.9186667,293.3183,10.40208,0.07365384,1.02,0,-999,0,7.393,97.9,7.408,7.554,0.2,0,0,7.666,13.25,0.2,101.9809,3.288,3.288,3.285,100,0,0,0,40.93,169.9,170
"2022-05-22 01:19:00",2947443,1.343333,303.7334,1.181407,0.04376706,1.42,0,0.6333333,318.0689,4.263959,0.1037733,0.87,0,-999,0,7.3,97.3,7.281,7.448,0.2,0,0,7.644,13.24,0.2,101.9757,3.288,3.29,3.286,100,0,0,0,40.93,169.9,170
"2022-05-22 01:20:00",2947444,1.179333,302.4667,1.359582,0.0575577,1.27,0,0.6766668,310.3196,7.869379,0.04437217,0.75,0,-999,0,7.227,96.7,7.196,7.353,0.2,0,0,7.638,13.23,0.2,101.9738,3.288,3.288,3.284,100,0,0,0,40.93,169.9,170
"2022-05-22 01:21:00",2947445,0.964,298.8,1.326571,0.06019966,1.06,0,0.444,300.8676,4.063372,0.08105965,0.54,0,-999,0,7.133,97,7.114,7.279,0.2,0,0,7.614,13.24,0.2,101.9736,3.29,3.29,3.288,100,0,0,0,40.93,169.9,170
"2022-05-22 01:22:00",2947446,0.7593333,295.0667,0.9974422,0.05790414,0.86,0,0.1853333,316.1013,9.519081,0.05760401,0.27,0,-999,0,7.1,97.9,7.063,7.205,0.2,0,0,7.598,13.24,0.2,101.9733,3.288,3.29,3.286,100,0,0,0,40.93,169.9,169.9
"2022-05-22 01:23:00",2947447,0.59,297.5999,2.026412,0.03483294,0.66,0,0.08466666,17.41541,52.5119,0.02825283,0.15,0,-999,0,7.033,98.7,7.009,7.15,0.2,0,0,7.581,13.24,0.2,101.9678,3.286,3.288,3.286,100,0,0,0,40.93,169.9,169.9
"2022-05-22 01:24:00",2947448,0.496,301.0002,2.097272,0.01818424,0.53,0,0.1846667,74.26619,2.767612,0.01857118,0.21,0,-999,0,6.987,98.9,6.97,7.102,0.2,0,0,7.555,13.24,0.2,101.9712,3.286,3.288,3.286,100,0,0,0,40.93,169.9,169.9
"2022-05-22 01:25:00",2947449,0.4466667,296.8017,3.90148,0.02211083,0.48,0,0.194,53.73559,15.99501,0.01404754,0.22,0,-999,0,6.92,98.4,6.911,7.036,0.2,0,0,7.544,13.25,0.2,101.9682,3.288,3.288,3.286,100,0,0,0,40.93,169.9,169.9
"2022-05-22 01:26:00",2947450,0.3893333,283.3327,2.440018,0.03906689,0.48,0,0.2286666,39.13662,4.512882,0.03403267,0.3,0,-999,0,6.853,97.6,6.814,6.971,0.2,0,0,7.525,13.24,0.2,101.9713,3.286,3.29,3.285,100,0,0,0,40.93,169.9,169.9
"2022-05-22 01:27:00",2947451,0.4926667,281.9978,3.443434,0.02743882,0.56,0,0.2233334,53.6022,4.715001,0.02270585,0.25,0,-999,0,6.773,97,6.724,6.881,0.2,0,0,7.5,13.25,0.2,101.9667,3.286,3.288,3.286,100,0,0,0,40.93,169.9,169.9
"2022-05-22 01:28:00",2947452,0.5066666,276.8386,12.21489,0.04027681,0.58,0,0.102,37.48375,22.29337,0.02343786,0.14,0,-999,0,6.7,96.7,6.664,6.813,0.2,0,0,7.476,13.25,0.2,101.9674,3.288,3.288,3.287,100,0,0,0,40.93,169.9,169.9
"2022-05-22 01:29:00",2947453,0.4206667,267.288,23.90547,0.04781445,0.51,0,0.1346667,344.897,18.03075,0.03649049,0.22,0,-999,0,6.687,96.8,6.638,6.781,0.2,0,0,7.462,13.25,0.2,101.9663,3.288,3.29,3.288,100,0,0,0,40.93,169.9,169.9
"2022-05-22 01:30:00",2947454,0.3826667,258.6424,9.823257,0.02515728,0.43,0,0.1933334,340.4728,9.038519,0.03025814,0.26,0,-999,0,6.6,96.5,6.609,6.746,0.2,0,0,7.436,13.25,0.2,101.9673,3.289,3.289,3.286,100,0,0,0,40.93,169.9,169.9
"2022-05-22 01:31:00",2947455,0.4073333,248.9745,18.58887,0.0494593,0.49,0,0.1793334,318.1994,3.249482,0.0152607,0.22,0,-999,0,6.6,96.3,6.562,6.699,0.2,0,0,7.414,13.25,0.2,101.968,3.288,3.289,3.288,100,0,0,0,40.93,169.9,169.9
"2022-05-22 01:32:00",2947456,0.472,278.1005,9.732852,0.08223544,0.64,0,0.2013333,312.7329,2.40728,0.04349202,0.29,0,-999,0,6.6,95.7,6.528,6.667,0.2,0,0,7.385,13.25,0.2,101.9747,3.288,3.29,3.286,100,0,0,0,40.93,169.9,169.9
"2022-05-22 01:33:00",2947457,0.528,285.755,6.771467,0.07582437,0.66,0,0.4173333,316.2047,5.417677,0.07995556,0.55,0,-999,0,6.6,95.7,6.533,6.663,0.2,0,0,7.366,13.25,0.2,101.9808,3.288,3.29,3.288,100,0,0,0,40.93,169.9,169.9
"2022-05-22 01:34:00",2947458,0.554,294.1412,9.085173,0.08097736,0.71,0,0.6426666,319.1414,5.557596,0.0658753,0.76,0,-999,0,6.6,95.1,6.594,6.714,0.2,0,0,7.335,13.24,0.2,101.978,3.287,3.29,3.286,100,0,0,0,40.93,169.9,169.9
"2022-05-22 01:35:00",2947459,0.8033333,305.7988,4.290668,0.06278711,0.89,0,0.6786668,312.601,6.04216,0.09135035,0.82,0,-999,0,6.6,95,6.661,6.734,0.2,0,0,7.307,13.24,0.2,101.9743,3.286,3.288,3.285,100,0,0,0,40.93,169.9,169.9
"2022-05-22 01:36:00",2947460,0.854,308.4688,2.984681,0.02893671,0.91,0,0.536,292.3976,4.657349,0.02870541,0.6,0,-999,0,6.687,95.9,6.874,6.9,0.2,0,0,7.289,13.24,0.2,101.9712,3.288,3.288,3.286,100,0,0,0,40.93,169.9,169.9
"2022-05-22 01:37:00",2947461,0.7459999,316.0444,6.492708,0.072,0.85,0,0.52,293.0674,2.767754,0.0305505,0.58,0,-999,0,6.833,97.4,7.17,7.146,0.2,0,0,7.263,13.25,0.2,101.9716,3.288,3.288,3.286,100,0,0,0,40.93,169.9,169.9
"2022-05-22 01:38:00",2947462,0.654,337.9383,5.358239,0.02961982,0.7,0,0.552,286.3334,2.086834,0.03762978,0.62,0,-999,0,7.02,98.1,7.326,7.327,0.2,0,0,7.244,13.24,0.2,101.9714,3.286,3.289,3.286,100,0,0,0,40.93,169.9,169.9
"2022-05-22 01:39:00",2947463,0.6193333,344.5345,4.88285,0.01948219,0.67,0,0.416,284.0665,2.322453,0.06205375,0.55,0,-999,0,7.1,98.6,7.348,7.386,0.2,0,0,7.217,13.25,0.2,101.969,3.286,3.288,3.286,100,0,0,0,40.93,169.9,169.9
"2022-05-22 01:40:00",2947464,0.688,350.7334,1.062615,0.0190438,0.72,0,0.332,288.4657,4.96349,0.04548992,0.39,0,-999,0,7.16,98.9,7.308,7.396,0.2,0,0,7.198,13.24,0.2,101.9747,3.286,3.288,3.284,100,0,0,0,40.93,169.9,169.9
"2022-05-22 01:41:00",2947465,0.812,350.7333,0.8538869,0.03429284,0.84,0,0.222,323.9299,9.056879,0.01326651,0.26,0,-999,0,7.133,99,7.188,7.299,0.2,0,0,7.173,13.25,0.2,101.9784,3.288,3.288,3.286,100,0,0,0,40.93,169.9,169.9
"2022-05-22 01:42:00",2947466,0.8593333,345.2665,2.59392,0.02112397,0.9,0,0.332,341.7997,6.002322,0.02535087,0.36,0,-999,0,6.953,99.4,7.032,7.127,0.2,0,0,7.149,13.25,0.2,101.9794,3.285,3.288,3.284,100,0,0,0,40.93,169.9,169.9
"2022-05-22 01:43:00",2947467,0.7833334,337.9337,2.047994,0.05262022,0.83,0,0.334,355.9992,6.184711,0.01818424,0.36,0,-999,0,6.78,98.9,6.856,6.992,0.2,0,0,7.123,13.25,0.2,101.9785,3.288,3.288,3.284,100,0,0,0,40.93,169.9,169.9
"2022-05-22 01:44:00",2947468,0.6000001,341.2003,2.166136,0.0483046,0.67,0,0.2233334,351.4012,3.737693,0.04853406,0.29,0,-999,0,6.68,97.9,6.761,6.887,0.2,0,0,7.1,13.25,0.2,101.9721,3.286,3.288,3.286,100,0,0,0,40.93,169.9,169.9
"2022-05-22 01:45:00",2947469,0.4253334,339.4692,3.963092,0.05402057,0.53,0,0.1126667,345.6631,3.02296,0.02515728,0.14,0,-999,0,6.6,96.6,6.73,6.805,0.2,0,0,7.056,13.24,0.2,101.9662,3.286,3.288,3.286,100,0,0,0,40.93,169.9,169.9
"2022-05-22 01:46:00",2947470,0.2433334,335.5469,11.41969,0.05906681,0.37,0,0.04066667,73.45921,80.85955,0.02434931,0.09,0,-999,0,6.6,96.5,6.702,6.765,0.2,0,0,7.034,13.24,0.2,101.9641,3.286,3.287,3.284,100,0,0,0,40.93,169.9,169.9
"2022-05-22 01:47:00",2947471,0.2126667,319.8036,6.529488,0.04138706,0.28,0,0.08600001,128.2666,3.510829,0.01665333,0.1,0,-999,0,6.573,96.5,6.673,6.751,0.2,0,0,7.004,13.24,0.2,101.9614,3.288,3.288,3.284,100,0,0,0,40.93,169.9,169.9
"2022-05-22 01:48:00",2947472,0.316,312.1331,2.963389,0.04207929,0.38,0,0.046,93.42951,12.23156,0.007118053,0.06,0,-999,0,6.5,96.5,6.657,6.75,0.2,0,0,6.985,13.24,0.2,101.9588,3.284,3.288,3.284,100,0,0,0,40.93,169.9,169.9